******** Week 366 almanac for PRN-1 ******** ID: 1 Health: 0 Eccentricity: 0.001690387726 Time of Applicability(s): 61440 Orbital Inclination(rad): 0.9577217302 Rate of Right Ascen(r/s): -7.851755628e-09 SQRT(A) (m 1/2): 5153.571777 Right Ascen at Week(rad): 2.386172655 Argument of Perigee(rad): 0.1576524787 Mean Anom(rad): 2.113909416 Af0(s): 0.0002366537353 Af1(s/s): -7.275958e-12 week: 366 ******** Week 366 almanac for PRN-2 ******** ID: 2 Health: 255 Eccentricity: 0.01682567596 Time of Applicability(s): 61440 Orbital Inclination(rad): 0.9628090336 Rate of Right Ascen(r/s): -7.794610391e-09 SQRT(A) (m 1/2): 5153.529785 Right Ascen at Week(rad): 2.223811125 Argument of Perigee(rad): -0.7882324329 Mean Anom(rad): -2.647204803 Af0(s): 6.104761963e-05 Af1(s/s): 7.275958e-12 week: 366 ******** Week 366 almanac for PRN-3 ******** ID: 3 Health: 0 Eccentricity: 0.006679058075 Time of Applicability(s): 61440 Orbital Inclination(rad): 0.9940758764 Rate of Right Ascen(r/s): -7.737465153e-09 SQRT(A) (m 1/2): 5153.562012 Right Ascen at Week(rad): -2.908893462 Argument of Perigee(rad): 1.208724056 Mean Anom(rad): 0.0473912429 Af0(s): 0.0003994473877 Af1(s/s): -1.455192e-11 week: 366 ******** Week 366 almanac for PRN-4 ******** ID: 4 Health: 0 Eccentricity: 0.003732681274 Time of Applicability(s): 61440 Orbital Inclination(rad): 0.9707246142 Rate of Right Ascen(r/s): -8.034620388e-09 SQRT(A) (m 1/2): 5153.664062 Right Ascen at Week(rad): -1.839233977 Argument of Perigee(rad): -2.870228607 Mean Anom(rad): 2.999213322 Af0(s): 4.220576172e-05 Af1(s/s): 0 week: 366 ******** Week 366 almanac for PRN-5 ******** ID: 5 Health: 0 Eccentricity: 0.005492210388 Time of Applicability(s): 61440 Orbital Inclination(rad): 0.9805936234 Rate of Right Ascen(r/s): -7.828897533e-09 SQRT(A) (m 1/2): 5153.680664 Right Ascen at Week(rad): -2.969144527 Argument of Perigee(rad): 1.421459028 Mean Anom(rad): -2.616209103 Af0(s): -0.0001831428589 Af1(s/s): 0 week: 366 ******** Week 366 almanac for PRN-6 ******** ID: 6 Health: 0 Eccentricity: 0.003791332245 Time of Applicability(s): 61440 Orbital Inclination(rad): 0.9865318068 Rate of Right Ascen(r/s): -7.566029441e-09 SQRT(A) (m 1/2): 5153.620117 Right Ascen at Week(rad): 2.337845145 Argument of Perigee(rad): -0.5346331261 Mean Anom(rad): 1.332787374 Af0(s): -0.0004823515625 Af1(s/s): 0 week: 366 ******** Week 366 almanac for PRN-7 ******** ID: 7 Health: 0 Eccentricity: 0.02072954178 Time of Applicability(s): 61440 Orbital Inclination(rad): 0.9509865958 Rate of Right Ascen(r/s): -7.817468486e-09 SQRT(A) (m 1/2): 5153.563965 Right Ascen at Week(rad): -0.8305300057 Argument of Perigee(rad): -1.978877911 Mean Anom(rad): 0.4993261015 Af0(s): -0.0001364150513 Af1(s/s): -3.637979e-12 week: 366 ******** Week 366 almanac for PRN-8 ******** ID: 8 Health: 0 Eccentricity: 0.01160001755 Time of Applicability(s): 61440 Orbital Inclination(rad): 0.9428373228 Rate of Right Ascen(r/s): -8.263201338e-09 SQRT(A) (m 1/2): 5153.642578 Right Ascen at Week(rad): 1.215460688 Argument of Perigee(rad): 0.5361334012 Mean Anom(rad): -2.976486737 Af0(s): 0.0003655320435 Af1(s/s): -7.275958e-12 week: 366 ******** Week 366 almanac for PRN-9 ******** ID: 9 Health: 0 Eccentricity: 0.003352642059 Time of Applicability(s): 61440 Orbital Inclination(rad): 0.9649482178 Rate of Right Ascen(r/s): -8.114623721e-09 SQRT(A) (m 1/2): 5153.700684 Right Ascen at Week(rad): -1.903773148 Argument of Perigee(rad): 2.055420406 Mean Anom(rad): -2.380411614 Af0(s): 0.0006006784302 Af1(s/s): -3.637979e-12 week: 366 ******** Week 366 almanac for PRN-10 ******** ID: 10 Health: 0 Eccentricity: 0.01092576981 Time of Applicability(s): 61440 Orbital Inclination(rad): 0.9936024995 Rate of Right Ascen(r/s): -7.703178011e-09 SQRT(A) (m 1/2): 5153.606445 Right Ascen at Week(rad): -2.911400412 Argument of Perigee(rad): -2.257356469 Mean Anom(rad): -0.9447632631 Af0(s): -0.0004657707275 Af1(s/s): 0 week: 366 ******** Week 366 almanac for PRN-11 ******** ID: 11 Health: 0 Eccentricity: 0.002222061157 Time of Applicability(s): 61440 Orbital Inclination(rad): 0.9634262212 Rate of Right Ascen(r/s): -7.806039438e-09 SQRT(A) (m 1/2): 5153.549316 Right Ascen at Week(rad): 2.355732724 Argument of Perigee(rad): -2.327793002 Mean Anom(rad): 2.494714155 Af0(s): -0.0002969476807 Af1(s/s): 1.455192e-11 week: 366 ******** Week 366 almanac for PRN-12 ******** ID: 12 Health: 0 Eccentricity: 0.008916854858 Time of Applicability(s): 61440 Orbital Inclination(rad): 0.9593875374 Rate of Right Ascen(r/s): -7.954617056e-09 SQRT(A) (m 1/2): 5153.696289 Right Ascen at Week(rad): 0.2871723639 Argument of Perigee(rad): 1.572761366 Mean Anom(rad): -0.2027813246 Af0(s): -0.0004808442139 Af1(s/s): 0 week: 366 ******** Week 366 almanac for PRN-13 ******** ID: 13 Health: 0 Eccentricity: 0.01011419296 Time of Applicability(s): 61440 Orbital Inclination(rad): 0.9762373576 Rate of Right Ascen(r/s): -7.943188008e-09 SQRT(A) (m 1/2): 5153.62207 Right Ascen at Week(rad): -1.728088156 Argument of Perigee(rad): 0.9946187622 Mean Anom(rad): 3.078225691 Af0(s): 0.0005373697876 Af1(s/s): 0 week: 366 ******** Week 366 almanac for PRN-14 ******** ID: 14 Health: 0 Eccentricity: 0.006944656372 Time of Applicability(s): 61440 Orbital Inclination(rad): 0.942741449 Rate of Right Ascen(r/s): -8.080336578e-09 SQRT(A) (m 1/2): 5153.599609 Right Ascen at Week(rad): 0.2319101068 Argument of Perigee(rad): -2.73022627 Mean Anom(rad): -0.3355152292 Af0(s): 0.0005871122925 Af1(s/s): 0 week: 366 ******** Week 366 almanac for PRN-15 ******** ID: 15 Health: 0 Eccentricity: 0.01665830612 Time of Applicability(s): 61440 Orbital Inclination(rad): 0.9429751414 Rate of Right Ascen(r/s): -8.377491813e-09 SQRT(A) (m 1/2): 5153.654785 Right Ascen at Week(rad): -2.048842565 Argument of Perigee(rad): 1.509585775 Mean Anom(rad): 2.311307951 Af0(s): 0.0003180505615 Af1(s/s): 3.637979e-12 week: 366 ******** Week 366 almanac for PRN-16 ******** ID: 16 Health: 0 Eccentricity: 0.01500797272 Time of Applicability(s): 61440 Orbital Inclination(rad): 0.9584947127 Rate of Right Ascen(r/s): -7.954617056e-09 SQRT(A) (m 1/2): 5153.612305 Right Ascen at Week(rad): 0.3040746151 Argument of Perigee(rad): 0.9330003718 Mean Anom(rad): -1.931757062 Af0(s): 0.000192940625 Af1(s/s): 7.275958e-12 week: 366 ******** Week 366 almanac for PRN-17 ******** ID: 17 Health: 0 Eccentricity: 0.01260375977 Time of Applicability(s): 61440 Orbital Inclination(rad): 0.9584467758 Rate of Right Ascen(r/s): -8.091765626e-09 SQRT(A) (m 1/2): 5153.558105 Right Ascen at Week(rad): 1.320838352 Argument of Perigee(rad): -1.114680847 Mean Anom(rad): -3.015969515 Af0(s): -8.817989502e-05 Af1(s/s): -1.091394e-11 week: 366 ******** Week 366 almanac for PRN-18 ******** ID: 18 Health: 0 Eccentricity: 0.005849838257 Time of Applicability(s): 61440 Orbital Inclination(rad): 0.9714975967 Rate of Right Ascen(r/s): -7.691748963e-09 SQRT(A) (m 1/2): 5153.588867 Right Ascen at Week(rad): 2.332230535 Argument of Perigee(rad): -2.871676077 Mean Anom(rad): 1.284553864 Af0(s): -0.0002992087036 Af1(s/s): 1.091394e-11 week: 366 ******** Week 366 almanac for PRN-19 ******** ID: 19 Health: 0 Eccentricity: 0.01131677628 Time of Applicability(s): 61440 Orbital Inclination(rad): 0.9576018879 Rate of Right Ascen(r/s): -8.068907531e-09 SQRT(A) (m 1/2): 5153.67334 Right Ascen at Week(rad): 1.364716345 Argument of Perigee(rad): 2.951624339 Mean Anom(rad): -1.249240848 Af0(s): 0.0005509359253 Af1(s/s): 0 week: 366 ******** Week 366 almanac for PRN-20 ******** ID: 20 Health: 0 Eccentricity: 0.002217292786 Time of Applicability(s): 61440 Orbital Inclination(rad): 0.9603402833 Rate of Right Ascen(r/s): -8.171768958e-09 SQRT(A) (m 1/2): 5153.705566 Right Ascen at Week(rad): -1.898366765 Argument of Perigee(rad): -1.926094141 Mean Anom(rad): -0.280807617 Af0(s): 8.215050049e-05 Af1(s/s): 1.818989e-11 week: 366 ******** Week 366 almanac for PRN-21 ******** ID: 21 Health: 0 Eccentricity: 0.0008296966553 Time of Applicability(s): 61440 Orbital Inclination(rad): 0.9634861423 Rate of Right Ascen(r/s): -8.023191341e-09 SQRT(A) (m 1/2): 5153.736328 Right Ascen at Week(rad): -2.903877315 Argument of Perigee(rad): -0.1944406786 Mean Anom(rad): -0.6206937177 Af0(s): 0.0003270946533 Af1(s/s): 0 week: 366 ******** Week 366 almanac for PRN-22 ******** ID: 22 Health: 0 Eccentricity: 0.01201295853 Time of Applicability(s): 61440 Orbital Inclination(rad): 0.9579434383 Rate of Right Ascen(r/s): -7.966046103e-09 SQRT(A) (m 1/2): 5153.566895 Right Ascen at Week(rad): 0.3074350667 Argument of Perigee(rad): -0.9930847814 Mean Anom(rad): -2.367936036 Af0(s): -1.582716064e-05 Af1(s/s): 7.275958e-12 week: 366 ******** Week 366 almanac for PRN-23 ******** ID: 23 Health: 0 Eccentricity: 0.006102085113 Time of Applicability(s): 61440 Orbital Inclination(rad): 0.9885871014 Rate of Right Ascen(r/s): -7.760323248e-09 SQRT(A) (m 1/2): 5153.665039 Right Ascen at Week(rad): -2.943667188 Argument of Perigee(rad): -2.741529641 Mean Anom(rad): 0.1237903022 Af0(s): 0.0005019470947 Af1(s/s): 3.637979e-12 week: 366 ******** Week 366 almanac for PRN-24 ******** ID: 24 Health: 0 Eccentricity: 0.0179848671 Time of Applicability(s): 61440 Orbital Inclination(rad): 0.9349457107 Rate of Right Ascen(r/s): -8.023191341e-09 SQRT(A) (m 1/2): 5153.592773 Right Ascen at Week(rad): -0.9397718334 Argument of Perigee(rad): 1.141087338 Mean Anom(rad): 1.481033734 Af0(s): -3.090064697e-05 Af1(s/s): 1.818989e-11 week: 366 ******** Week 366 almanac for PRN-25 ******** ID: 25 Health: 0 Eccentricity: 0.01288700104 Time of Applicability(s): 61440 Orbital Inclination(rad): 0.9477808156 Rate of Right Ascen(r/s): -8.046049436e-09 SQRT(A) (m 1/2): 5153.651855 Right Ascen at Week(rad): 0.1929284192 Argument of Perigee(rad): 1.160425008 Mean Anom(rad): -0.313712179 Af0(s): 0.0003399071167 Af1(s/s): -3.637979e-12 week: 366 ******** Week 366 almanac for PRN-26 ******** ID: 26 Health: 0 Eccentricity: 0.01102304459 Time of Applicability(s): 61440 Orbital Inclination(rad): 0.928564111 Rate of Right Ascen(r/s): -8.194627053e-09 SQRT(A) (m 1/2): 5153.679688 Right Ascen at Week(rad): 0.1176674868 Argument of Perigee(rad): 0.7128437936 Mean Anom(rad): -1.137091348 Af0(s): -0.0002788594971 Af1(s/s): -3.637979e-12 week: 366 ******** Week 366 almanac for PRN-27 ******** ID: 27 Health: 0 Eccentricity: 0.01437807083 Time of Applicability(s): 61440 Orbital Inclination(rad): 0.9519213653 Rate of Right Ascen(r/s): -8.148910863e-09 SQRT(A) (m 1/2): 5153.609863 Right Ascen at Week(rad): 1.24785667 Argument of Perigee(rad): 0.892463731 Mean Anom(rad): -2.867127314 Af0(s): -8.215050049e-05 Af1(s/s): -1.455192e-11 week: 366 ******** Week 366 almanac for PRN-28 ******** ID: 28 Health: 0 Eccentricity: 0.0003957748413 Time of Applicability(s): 61440 Orbital Inclination(rad): 0.9618922404 Rate of Right Ascen(r/s): -7.748894201e-09 SQRT(A) (m 1/2): 5153.521484 Right Ascen at Week(rad): -0.8558178438 Argument of Perigee(rad): -0.3676763948 Mean Anom(rad): 1.186851722 Af0(s): -0.0004401458008 Af1(s/s): 1.091394e-11 week: 366 ******** Week 366 almanac for PRN-29 ******** ID: 29 Health: 0 Eccentricity: 0.003486633301 Time of Applicability(s): 61440 Orbital Inclination(rad): 0.9611012816 Rate of Right Ascen(r/s): -8.080336578e-09 SQRT(A) (m 1/2): 5153.680664 Right Ascen at Week(rad): 1.337685177 Argument of Perigee(rad): 2.758230782 Mean Anom(rad): -3.032987489 Af0(s): -0.0002698154053 Af1(s/s): 7.275958e-12 week: 366 ******** Week 366 almanac for PRN-30 ******** ID: 30 Health: 0 Eccentricity: 0.008196830749 Time of Applicability(s): 61440 Orbital Inclination(rad): 0.9362579834 Rate of Right Ascen(r/s): -7.988904198e-09 SQRT(A) (m 1/2): 5153.686523 Right Ascen at Week(rad): -0.8401230033 Argument of Perigee(rad): -2.291697265 Mean Anom(rad): 0.2790073617 Af0(s): 0.0001462128174 Af1(s/s): 1.455192e-11 week: 366 ******** Week 366 almanac for PRN-31 ******** ID: 31 Health: 0 Eccentricity: 0.01081371307 Time of Applicability(s): 61440 Orbital Inclination(rad): 0.9547496424 Rate of Right Ascen(r/s): -7.806039438e-09 SQRT(A) (m 1/2): 5153.540527 Right Ascen at Week(rad): -0.8061349924 Argument of Perigee(rad): 0.9434689668 Mean Anom(rad): -0.5819296187 Af0(s): -0.0001228489136 Af1(s/s): 3.637979e-12 week: 366 ******** Week 366 almanac for PRN-32 ******** ID: 32 Health: 0 Eccentricity: 0.009396553039 Time of Applicability(s): 61440 Orbital Inclination(rad): 0.9679622503 Rate of Right Ascen(r/s): -8.057478483e-09 SQRT(A) (m 1/2): 5153.695801 Right Ascen at Week(rad): -1.886628965 Argument of Perigee(rad): -1.983349525 Mean Anom(rad): -2.316847285 Af0(s): -7.536743164e-07 Af1(s/s): 1.818989e-11 week: 366